Regional Weather Roundup
Issued by NWS Wakefield, VA

Home | Current Version | Previous Version | Graphics & Text | Print | Product List | Glossary On
Versions: 1 2 3 4 5 6 7 8 9 10 11 12 13 14 15 16 17 18 19 20 21 22 23 24 25 26 27 28 29 30 31 32 33 34 35 36 37 38 39 40 41 42 43 44 45 46 47 48 49 50
000
ASUS41 KAKQ 230010
RWRAKQ

REGIONAL WEATHER ROUNDUP
NATIONAL WEATHER SERVICE WAKEFIELD VA
800 PM EDT MON SEP 22 2014

Note: "fair" indicates few or no clouds below 12,000 feet with no
significant weather and/or obstructions to visibility. * = Denotes
station may not report precipitation (e.g., rain,snow,etc.),
thunder or fog.

VAZ042-051-052>054-056-230100-
NORTHERN VIRGINIA

CITY           SKY/WX    TMP DP  RH WIND       PRES   REMARKS
WASH NATIONAL  PTCLDY    67  43  41 N12       30.13R
DULLES         MOCLDY    62  43  49 N9        30.14R
FORT BELVOIR   PTCLDY    62  47  56 N3        30.14R
QUANTICO       PTCLDY    63  47  55 N9        30.14R
FREDERICKSBRG* CLEAR     66  48  52 NW5       30.12R
STAFFORD*      PTCLDY    57  50  77 CALM      30.17R
WARRENTON      PTCLDY    59  53  79 W5        30.13R
CULPEPER*      MOCLDY    61  46  59 CALM      30.15R
MANASSAS*      PTCLDY    61  48  63 N6        30.14R
LEESBURG*      MOCLDY    61  46  59 N7        30.14R
WINCHESTER     PTCLDY    59  41  51 NW9       30.16R
FRONT ROYAL*   MOCLDY    59  43  55 NW5       30.15R
LURAY*         MOCLDY    63  46  55 N5        30.16R
$$

VAZ048-049-060>072-079>083-230100-
CENTRAL AND SOUTH CENTRAL VIRGINIA...AND NORTH CENTRAL NORTH CAROLINA

CITY           SKY/WX    TMP DP  RH WIND       PRES   REMARKS
RICHMOND       MOCLDY    68  46  45 N7        30.10R
CHESTERFIELD*  CLEAR    N/A N/A N/A NE3       30.11R
PETERSBURG*    CLEAR     58  55  88 CALM      30.11R
HANOVER        CLEAR     61  51  70 CALM      30.13R
TAPPAHANNOCK*  CLEAR     59  49  69 CALM      30.12R
CHARLOTTSVILLE MOCLDY    63  47  55 N6        30.13R
ORANGE*        MOCLDY    63  43  48 NW5       30.15R
LOUISA*        PTCLDY    64  46  52 N3        30.12R
FARMVILLE*     PTCLDY    66  52  59 N5        30.09R
CREWE*         PTCLDY    62  55  76 CALM      30.10R
FORT PICKETT*  PTCLDY    64  56  78 CALM      30.10R
LUNENBURG*     PTCLDY    64  61  89 CALM      30.10R
SOUTH HILL*    PTCLDY    63  61  94 CALM      30.16R
LAWRENCEVILLE* PTCLDY    62  58  86 CALM      30.10R
ROANOKE RAPIDS PTCLDY    63  59  88 CALM      30.09R
RALEIGH        CLOUDY    66  56  70 CALM      30.11R
$$

VAZ088>098-230100-
SOUTHEAST VIRGINIA

CITY           SKY/WX    TMP DP  RH WIND       PRES   REMARKS
NORFOLK        CLEAR     71  55  56 NE10      30.09R
VIRGINIA BEACH PTCLDY    68  53  58 N8        30.08R
NORFOLK NAVAL  PTCLDY    71  56  58 NE8       30.10R
WEST POINT*    CLEAR     65  52  61 CALM      30.12R
NEWPORT NEWS   PTCLDY    69  55  60 N3        30.10R
LANGLEY AFB    PTCLDY    69  55  60 N7        30.09R
FORT EUSTIS    PTCLDY    69  49  49 NE3       30.08R
WILLIAMSBURG*  PTCLDY    66  59  77 CALM      30.11R
HR EXEC AP*    CLEAR     61  55  82 NE5       30.11R
FRANKLIN*      PTCLDY    63  57  82 CALM      30.09R
WAKEFIELD      PTCLDY    63  58  83 CALM      30.09R
$$

VAZ020-022-025-037-045-230100-
WEST CENTRAL AND SOUTHWEST VIRGINIA

CITY           SKY/WX    TMP DP  RH WIND       PRES   REMARKS
STAUNTON*      MOCLDY    61  43  50 NE7       30.17R
HOT SPRINGS VA MOCLDY    48  32  53 NW10      30.23R
LYNCHBURG      MOCLDY    59  54  83 CALM      30.13R
DANVILLE       MOCLDY    62  56  80 SW3       30.12R
SOUTH BOSTON*  NOT AVBL
MARTINSVILLE   MOCLDY    58  57  97 CALM      30.16R
ROANOKE        MOCLDY    63  48  58 CALM      30.17R
BLACKSBURG     MOCLDY    55  54  94 W3        30.20R
DUBLIN*        PTCLDY    58  49  72 NW3       30.20R
MARION*        PTCLDY    56  48  75 CALM      30.23R
HILLSVILLE*    MOCLDY    55  48  76 NW8       30.19R
RICHLANDS*     CLEAR     57  49  76 CALM      30.21R
WISE*          CLEAR     54  45  71 N5        30.23R
ABINGDON*      CLEAR     60  49  66 CALM      30.19R
$$

MDZ021>025-VAZ099-100-230100-
SOUTHERN MARYLAND AND THE DELMARVA PENINSULA

CITY           SKY/WX    TMP DP  RH WIND       PRES   REMARKS
PATUXENT RIVER PTCLDY    66  46  48 N9        30.11R
BAY BRIDGE APT   N/A     64  45  48 W13       30.11R
LEONARDTOWN    CLEAR     63  45  51 CALM      30.12R
DOVER          PTCLDY    61  47  59 NW9       30.07R
GEORGETOWN     PTCLDY    66  49  54 VRB3      30.10R
EASTON         PTCLDY    64  50  59 CALM      30.14
CAMBRIDGE      MOCLDY    64  48  55 W3        30.10R
SALISBURY      CLEAR     66  51  58 NW3       30.09R
OCEAN CITY     CLEAR     62  51  67 NW3       30.09R
WALLOPS ISLAND CLEAR     64  53  67 NW5       30.10R
ACCOMACK*      CLEAR     59  52  77 N3        30.09R
$$

NCZ012>017-030>032-230100-
EASTERN NORTH CAROLINA

CITY           SKY/WX    TMP DP  RH WIND       PRES   REMARKS
ELIZABETH CITY CLEAR     67  58  72 E7        30.08R
AHOSKIE*       MOCLDY    63  58  83 CALM      30.09R
EDENTON*       CLEAR     66  61  84 NE3       30.08R
CURRITUCK*     CLEAR     66  58  74 CALM      30.09R
KILL DEVIL HLS CLEAR     70  58  65 NE5       30.07R
MANTEO         CLEAR     69  58  67 NE7       30.08R
CAPE HATTERAS  CLEAR     68  61  78 NE6       30.06R
TARBORO*       CLOUDY    67  60  79 CALM      30.09R
GOLDSBORO      CLOUDY    72  61  68 CALM      30.08R
WASHINGTON     PTCLDY    65  61  85 CALM      30.08R
GREENVILLE     CLOUDY    66  61  82 CALM      30.09R
NEW BERN       PTCLDY    70  63  78 CALM      30.08R
WILMINGTON     CLOUDY    75  63  66 CALM      30.06R
$$

VAZ048-230100-
ELSEWHERE

CITY           SKY/WX    TMP DP  RH WIND       PRES   REMARKS
HARRISBURG PA  PTCLDY    60  43  53 NW12      30.12R
BALTIMORE      MOCLDY    62  43  49 NW7       30.12R
ANNAPOLIS      PTCLDY    65  47  52 MISG      30.11R
ANDREWS AFB    PTCLDY    60  44  54 N9        30.13R
WILMINGTON DE  PTCLDY    61  45  55 NW10      30.11R
PHILADELPHIA   MOCLDY    65  44  46 NW9       30.09R
WILDWOOD NJ*   CLEAR     64  45  48 NW7       30.09R
ATLANTIC CITY  PTCLDY    62  50  64 W6        30.07R
HENDERSON NC   CLOUDY    63  58  84 CALM      30.11R
GREENSBORO     MOCLDY    68  54  60 N6        30.12R
ROCKY MOUNT    CLOUDY    69  57  65 N5        30.09R
FAYETTEVILLE   CLOUDY    71  56  58 N7        30.09R
CHARLOTTE      MOCLDY    70  52  52 NE5       30.11R
$$

VAZ100-230100-
MARINE

STATION/POSITION TIME  TEMP    WIND        PRES    WAVE   SWELL
                       AIR SEA DIR/SP/G            HT/PER HT/PER
                 (UTC) (F)     (DEG/KT/KT) (MB)    (FT/S) (FT/S)
44066 TX TWR #4  0000   68 71  310/ 16/ 19 1016.2R   6/10   5/10
CAPE MAY NJ      0000   68 75  310/ 15/ 19 1017.9R
LEWES DE         0000   69 72  320/ 16/ 19 1018.2R
15NM E FENWICK I 0000   70 71              1017.8R   3/ 9
OCEAN-CITY-INLET 0000   67 72  320/  5/  7 1018.3R
WACHAPREAGUE VA  0000   65 75   CALM  /  2 1018.9R
THOMAS POINT MD  0000   65 73  320/ 12/ 13 1020.8R
GOOSES REEF MD   0000   69     360/ 16/ 19 1019.6R
COVE POINT MD    0000   68     360/ 16/ 18 1019.3R
SOLOMONS ISLAND  0000      75                N/A
BISHOPS HEAD MD  0000   66 72  330/  8/  8 1018.8R
PINEY POINT MD   0000           20/  8/  9   N/A
POTOMAC MD       0000   69      10/  8/ 10 1018.6R
CAMBRIDGE MD     0000   69 73  320/ 13/ 15 1019.0R
LEWISETTA VA     0000   69 74   20/  5/  9 1019.0R
RAPPAHANNOCK LGT 0000          340/ 15/ 17 1019.2R
STINGRAY PT      0000   71     360/ 10/ 14   N/A
YORK RVR RNG VA  0000   71      20/ 14/ 17 1018.3R
YORKTOWN VA      0000   71 76   10/  9/ 10 1018.6R
JAMESTOWN VA     0000   68      60/  2/  4   N/A
DOMINION TERM VA 0000   72      60/  7/  9 1018.8R
KIPTOPEKE VA     0000      79   70/  4/  5   N/A
CHES BAY BRIDGE  0000   71 75   30/ 11/ 13 1018.3R
CAPE HENRY VA    0000   71      20/ 13/ 15 1017.6R
CHESAPEAKE LGHT  2300   71      20/  9/ 10 1018.6R
WILLOUBY STN VA  0000   72      40/  9/ 10 1017.6R
S CRANEY ISL VA  0000           50/  8/  9 1018.6R
1ST LANDING BUOY 0000   72      30/ 12/ 14 1018.4R
64NM E OF VA BCH 0000   72 76  340/ 14/ 16 1017.8R   3/ 5   2/ 6
DUCK PIER NC     0000   72 75   40/ 10/ 12 1017.5S
OREGON INLET NC  0000   71 75   40/  9/ 12 1018.2R
DIAMOND SHLS NC  0000   73      10/ 14/ 17 1017.4R   4/ 7   2/ 7
CAPE LOOKOUT NC  2300   75      20/  8/ 10 1016.9R
$$


USA.gov is the U.S. government's official web portal to all federal, state and local government web resources and services.